View from above orbital plane
|
View from above satellite
|
Ground track
|
The orbit data is extracted from the following two-line orbital elements,
1 14690U 84012A 21041.20105914 0.00002870 00000-0 15845-3 0 01
2 14690 63.2958 189.2419 0920303 88.0490 271.9510 13.59761606 04
Epoch (UTC): | 10 February 2021 04:49:31 |
Eccentricity: | 0.0920303 |
inclination: | 63.2958° |
perigee height: | 354 km |
apogee height: | 1719 km |
right ascension of ascending node: | 189.2419° |
argument of perigee: | 88.0490° |
revolutions per day: | 13.59761606 |
mean anomaly at epoch: | 271.9510° |
orbit number at epoch: | 0 |
The dashed part of the orbit path shows where the satellite is in the earth's shadow,
|
|